• In Deutschland
  • Länderverzeichnis
  • Für 7 Tage
  • Wassertemperatur
  • Satellitenkarten
  • Wetterkarte
  • Widgets
  • user-avatar
    Anmelden

    Stündliche Wetter Santo Anastácio

    Heute, 25 Februar, Sonntag

    Zeit Temperatur Niederschläge Wind Luftdruck Luftfeuchtigkeit
    00:00 +24°C° 0,1 mm 2 m/S 726 mmHg 89%
    01:00 +24°C° 0 mm 3 m/S 726 mmHg 90%
    02:00 +22°C° 0 mm 3 m/S 726 mmHg 91%
    03:00 +22°C° 0 mm 3 m/S 726 mmHg 92%
    04:00 +22°C° 0 mm 3 m/S 726 mmHg 91%
    05:00 +21°C° 0 mm 3 m/S 726 mmHg 91%
    06:00 +21°C° 0 mm 4 m/S 726 mmHg 91%
    07:00 +22°C° 0 mm 4 m/S 726 mmHg 88%
    08:00 +23°C° 0 mm 4 m/S 726 mmHg 85%
    09:00 +25°C° 0 mm 4 m/S 727 mmHg 80%
    10:00 +27°C° 0 mm 3 m/S 727 mmHg 75%
    11:00 +28°C° 0 mm 3 m/S 727 mmHg 71%
    12:00 +30°C° 0 mm 2 m/S 727 mmHg 66%
    13:00 +30°C° 0,2 mm 2 m/S 726 mmHg 65%
    14:00 +31°C° 0,2 mm 2 m/S 726 mmHg 65%
    15:00 +31°C° 0,2 mm 2 m/S 725 mmHg 64%
    16:00 +30°C° 0,5 mm 2 m/S 725 mmHg 68%
    17:00 +29°C° 0,5 mm 2 m/S 724 mmHg 73%
    18:00 +29°C° 0,5 mm 1 m/S 724 mmHg 78%
    19:00 +28°C° 0,3 mm 1 m/S 724 mmHg 79%
    20:00 +27°C° 0,3 mm 1 m/S 725 mmHg 81%
    21:00 +26°C° 0,3 mm 1 m/S 725 mmHg 82%
    22:00 +26°C° 0,3 mm 1 m/S 725 mmHg 83%
    23:00 +25°C° 0,3 mm 1 m/S 725 mmHg 84%

    Morgen, 26 Februar, Montag

    Zeit Temperatur Niederschläge Wind Luftdruck Luftfeuchtigkeit
    00:00 +25°C° 0,3 mm 2 m/S 726 mmHg 85%
    01:00 +25°C° 0,6 mm 2 m/S 725 mmHg 87%
    02:00 +25°C° 0,6 mm 2 m/S 725 mmHg 88%
    03:00 +24°C° 0,6 mm 2 m/S 725 mmHg 89%
    04:00 +24°C° 0 mm 2 m/S 725 mmHg 89%
    05:00 +24°C° 0 mm 2 m/S 725 mmHg 90%
    06:00 +23°C° 0 mm 2 m/S 725 mmHg 91%
    07:00 +24°C° 0 mm 3 m/S 725 mmHg 89%
    08:00 +25°C° 0 mm 3 m/S 726 mmHg 87%
    09:00 +26°C° 0 mm 3 m/S 726 mmHg 85%
    10:00 +27°C° 0,1 mm 3 m/S 726 mmHg 81%
    11:00 +28°C° 0,1 mm 2 m/S 726 mmHg 77%
    12:00 +29°C° 0,1 mm 2 m/S 726 mmHg 73%
    13:00 +30°C° 0,9 mm 1 m/S 725 mmHg 71%
    14:00 +30°C° 0,9 mm 1 m/S 725 mmHg 70%
    15:00 +30°C° 0,9 mm 1 m/S 724 mmHg 69%
    16:00 +29°C° 2,6 mm 1 m/S 724 mmHg 75%
    17:00 +28°C° 2,6 mm 1 m/S 724 mmHg 80%
    18:00 +28°C° 2,6 mm 1 m/S 723 mmHg 86%
    19:00 +27°C° 0,4 mm 1 m/S 724 mmHg 86%
    20:00 +26°C° 0,4 mm 2 m/S 724 mmHg 87%
    21:00 +25°C° 0,4 mm 2 m/S 724 mmHg 88%
    22:00 +25°C° 0 mm 2 m/S 724 mmHg 88%
    23:00 +25°C° 0 mm 1 m/S 725 mmHg 89%

    übermorgen, 27 Februar, Dienstag

    Zeit Temperatur Niederschläge Wind Luftdruck Luftfeuchtigkeit
    00:00 +24°C° 0 mm 1 m/S 725 mmHg 89%
    01:00 +24°C° 0 mm 1 m/S 724 mmHg 91%
    02:00 +24°C° 0 mm 2 m/S 724 mmHg 92%
    03:00 +24°C° 0 mm 2 m/S 724 mmHg 93%
    04:00 +24°C° 0,1 mm 2 m/S 724 mmHg 94%
    05:00 +24°C° 0,1 mm 2 m/S 724 mmHg 94%
    06:00 +23°C° 0,1 mm 1 m/S 724 mmHg 95%
    07:00 +24°C° 0,5 mm 2 m/S 725 mmHg 94%
    08:00 +24°C° 0,5 mm 2 m/S 725 mmHg 94%
    09:00 +24°C° 0,5 mm 3 m/S 726 mmHg 93%
    10:00 +25°C° 0,5 mm 3 m/S 726 mmHg 91%
    11:00 +26°C° 0,5 mm 3 m/S 726 mmHg 89%
    12:00 +26°C° 0,5 mm 3 m/S 726 mmHg 87%
    13:00 +27°C° 0,1 mm 3 m/S 725 mmHg 83%
    14:00 +28°C° 0,1 mm 2 m/S 724 mmHg 80%
    15:00 +28°C° 0,1 mm 2 m/S 724 mmHg 76%
    16:00 +28°C° 0 mm 2 m/S 723 mmHg 77%
    17:00 +28°C° 0 mm 1 m/S 723 mmHg 79%
    18:00 +28°C° 0 mm 1 m/S 723 mmHg 80%
    19:00 +27°C° 0 mm 1 m/S 723 mmHg 82%
    20:00 +26°C° 0 mm 1 m/S 723 mmHg 85%
    21:00 +25°C° 0 mm 1 m/S 724 mmHg 87%
    22:00 +25°C° 0 mm 1 m/S 724 mmHg 86%
    23:00 +25°C° 0 mm 2 m/S 724 mmHg 86%

    28 Februar, Mittwoch

    Zeit Temperatur Niederschläge Wind Luftdruck Luftfeuchtigkeit
    00:00 +24°C° 0 mm 2 m/S 724 mmHg 86%
    01:00 +24°C° 0,1 mm 2 m/S 724 mmHg 86%
    02:00 +24°C° 0,1 mm 2 m/S 724 mmHg 86%
    03:00 +24°C° 0,1 mm 2 m/S 723 mmHg 86%
    04:00 +24°C° 0,2 mm 2 m/S 723 mmHg 86%
    05:00 +24°C° 0,2 mm 2 m/S 724 mmHg 87%
    06:00 +23°C° 0,2 mm 2 m/S 724 mmHg 88%
    07:00 +24°C° 0,1 mm 2 m/S 724 mmHg 88%
    08:00 +25°C° 0,1 mm 2 m/S 725 mmHg 88%
    09:00 +25°C° 0,1 mm 2 m/S 726 mmHg 88%
    10:00 +27°C° 0 mm 2 m/S 726 mmHg 83%
    11:00 +28°C° 0 mm 3 m/S 725 mmHg 79%
    12:00 +29°C° 0 mm 3 m/S 725 mmHg 74%
    13:00 +30°C° 0 mm 3 m/S 725 mmHg 71%
    14:00 +31°C° 0 mm 3 m/S 724 mmHg 68%
    15:00 +31°C° 0 mm 3 m/S 723 mmHg 65%
    16:00 +31°C° 0,1 mm 2 m/S 723 mmHg 68%
    17:00 +30°C° 0,1 mm 1 m/S 723 mmHg 71%
    18:00 +30°C° 0,1 mm 1 m/S 723 mmHg 74%
    19:00 +29°C° 0 mm 1 m/S 723 mmHg 76%
    20:00 +26°C° 0 mm 0 m/S 724 mmHg 78%
    21:00 +25°C° 0 mm 0 m/S 724 mmHg 80%
    22:00 +24°C° 0 mm 0 m/S 724 mmHg 81%
    23:00 +26°C° 0 mm 1 m/S 725 mmHg 83%

    1 März, Donnerstag

    Zeit Temperatur Niederschläge Wind Luftdruck Luftfeuchtigkeit
    00:00 +26°C° 0 mm 1 m/S 725 mmHg 84%
    01:00 +25°C° 0,1 mm 1 m/S 725 mmHg 85%
    02:00 +25°C° 0,1 mm 1 m/S 724 mmHg 86%
    03:00 +25°C° 0,1 mm 1 m/S 724 mmHg 88%
    04:00 +25°C° 0 mm 1 m/S 724 mmHg 88%
    05:00 +25°C° 0 mm 2 m/S 725 mmHg 89%
    06:00 +24°C° 0 mm 2 m/S 725 mmHg 90%
    07:00 +25°C° 0 mm 2 m/S 725 mmHg 88%
    08:00 +26°C° 0 mm 2 m/S 726 mmHg 87%
    09:00 +27°C° 0 mm 2 m/S 727 mmHg 85%
    10:00 +28°C° 0 mm 2 m/S 727 mmHg 81%
    11:00 +29°C° 0 mm 2 m/S 726 mmHg 76%
    12:00 +30°C° 0 mm 2 m/S 726 mmHg 71%
    13:00 +31°C° 0 mm 2 m/S 726 mmHg 68%
    14:00 +31°C° 0 mm 1 m/S 725 mmHg 65%
    15:00 +32°C° 0 mm 1 m/S 725 mmHg 63%
    16:00 +32°C° 0 mm 1 m/S 725 mmHg 66%
    17:00 +31°C° 0 mm 1 m/S 724 mmHg 69%
    18:00 +31°C° 0 mm 1 m/S 724 mmHg 72%
    19:00 +30°C° 0 mm 1 m/S 724 mmHg 73%
    20:00 +29°C° 0 mm 1 m/S 725 mmHg 75%
    21:00 +28°C° 0 mm 1 m/S 725 mmHg 76%
    22:00 +27°C° 0,1 mm 1 m/S 725 mmHg 78%
    23:00 +27°C° 0,1 mm 1 m/S 726 mmHg 80%

    2 März, Freitag

    Zeit Temperatur Niederschläge Wind Luftdruck Luftfeuchtigkeit
    00:00 +26°C° 0,1 mm 2 m/S 726 mmHg 82%
    01:00 +26°C° 0,8 mm 2 m/S 725 mmHg 84%
    02:00 +26°C° 0,8 mm 1 m/S 725 mmHg 87%
    03:00 +25°C° 0,8 mm 1 m/S 725 mmHg 89%
    04:00 +25°C° 0,3 mm 2 m/S 725 mmHg 90%
    05:00 +25°C° 0,3 mm 2 m/S 725 mmHg 91%
    06:00 +25°C° 0,3 mm 2 m/S 725 mmHg 92%
    07:00 +26°C° 0 mm 2 m/S 726 mmHg 90%
    08:00 +26°C° 0 mm 2 m/S 726 mmHg 88%
    09:00 +27°C° 0 mm 2 m/S 727 mmHg 86%
    10:00 +29°C° 0,1 mm 1 m/S 727 mmHg 80%
    11:00 +30°C° 0,1 mm 1 m/S 726 mmHg 74%
    12:00 +32°C° 0,1 mm 1 m/S 726 mmHg 68%
    13:00 +30°C° 0 mm 0 m/S 725 mmHg 64%
    14:00 +31°C° 0 mm 0 m/S 725 mmHg 60%
    15:00 +32°C° 0 mm 0 m/S 724 mmHg 57%
    16:00 +31°C° 0 mm 0 m/S 724 mmHg 61%
    17:00 +30°C° 0 mm 0 m/S 724 mmHg 65%
    18:00 +32°C° 0 mm 1 m/S 723 mmHg 69%
    19:00 +31°C° 0 mm 1 m/S 724 mmHg 71%
    20:00 +29°C° 0 mm 1 m/S 724 mmHg 73%
    21:00 +28°C° 0 mm 1 m/S 724 mmHg 74%
    22:00 +28°C° 0,1 mm 1 m/S 724 mmHg 77%
    23:00 +27°C° 0,1 mm 1 m/S 724 mmHg 80%
    Mehr zeigen